CZ-4C R/B, 43012

Orbit data source: Space-Track

CZ-4C R/B, 43012 is space debris in SSO originally from a launch on Tue, 14 Nov 2017 UTC via a CHANG ZHENG 4C launch vehicle from the Taiyaun Space Center, China (TSC). Debris objects in space refer to the collection of defunct objects orbiting the Earth. Examples of debris include non-operational satellites, rocket bodies, and fragments generated from explosions, collisions, or faulty payload assembly.

Loading next visibility...
CZ-4C R/B details
Identifier
43012, 2017-072C
Orbit
SSO
Last TLE update7 hours ago
Origin
Flag of CNFudan Univ (CN / PRC)
ManufacturerFudan Univ
MissionSpacecraft
Bus & MotorXINYUN, Unknown motor
Mass1,001 kg wet, 1 kg dry
Launch date (UTC)
2017-11-14 (7 years ago)
Launch vehicle
CHANG ZHENG 4C
Launch site
Taiyaun Space Center, China (TSC)
Object type
Payload
Rocket body
Debris
Shape & HBRCyl, 2.9 m
Radar Cross Section20.385 m², Large (>1 m²)

Expand to show TLE details & history

TLE from 7 hours ago
0 CZ-4C R/B
1 43012U 17072C   24361.22585906  .00001012  00000-0  20960-3 0  9994
2 43012  98.5859  81.1813 0124304   8.6856 351.6453 14.57924762378221
Epoch: 2024-12-26T05:25Z
Definitive object data (Epoch: 2024-12-26T05:25:14.222Z)
Latitude-0°
Longitude-95.33626°
Altitude615.81 km
Speed7.597 km/s
True Right ascension05h 24m 43s
True Declination0° 00' 00"
Sunlit
Object was in full shadow at TLE epoch
Visualization TLE readout
Latitude22.37875°
Longitude-98.59333°
Altitude617.5 km
Speed7.597 km/s
Apparent Right ascension02h 49m 13s
Apparent Declination-9° 37' 21"
Sunlit
Object is in full shadow
Visualization observer readout
Local Sidereal Time11:28:01
Azimuth289.988° WNW
Elevation-36.179°
Doppler factor1
Orbital elements
Apogee altitude784.931 km
Perigee altitude609.038 km
Semi-major axis7,075.121 km
Eccentricity0.0124304
Inclination98.5859°
RAAN81.1813°
Arg. of periapsis8.6856°
True anomaly351.4351°
Mean anomaly351.6453°
Eccentric anomaly351.54053°
Mean motion3.64706 °/min
BSTAR0.0002096
Orbital period98.71 mins
Loading maneuver chart data...
Loading historical data...
Loading historical data...
Loading historical data...
Loading historical data...
Loading historical data...
Loading historical data...
Loading historical data...
Other satellites on launch #72 in the year 2017 (2017-11-14 UTC)

CZ-4C R/B Visibility forecast

Observer location: undefined°, undefined

Span
Click to sort rows by Start time (UTC) header in descending order
Start Az.
Max El. time (UTC)
Max El. Az.
Max El.
End time (UTC)
End Az.
8 mins2024-12-26 17:31:34.382Z41.816° NE2024-12-26 17:35:34.382Z96.785° ESE22.694°2024-12-26 17:39:34.382Z149.539° SSE
7 mins2024-12-26 19:10:34.382Z342.456° N2024-12-26 19:13:34.382Z278.99° WNW30.849°2024-12-26 19:17:34.382Z225.315° WSW
5 mins2024-12-27 04:38:34.382Z103.058° ESE2024-12-27 04:40:34.382Z66.069° ENE21.226°2024-12-27 04:43:34.382Z18.406° NNE
6 mins2024-12-27 06:15:34.382Z212.92° SW2024-12-27 06:17:34.382Z250.084° W25.714°2024-12-27 06:21:34.382Z322.189° NNW
|